Regional Weather Roundup
Issued by NWS

Home | Current Version | Previous Version | Graphics & Text | Print | Product List | Glossary On
Versions: 1 2 3 4 5 6 7 8 9 10 11 12 13 14 15 16 17 18 19 20 21 22 23 24 25 26 27 28 29 30 31 32 33 34 35 36 37 38 39 40 41 42 43 44 45 46 47 48 49 50
000
ASUS43 KLSX 182107
RWRMO

WEATHER SUMMARY FOR MISSOURI
NATIONAL WEATHER SERVICE SPRINGFIELD MO
300 PM CST WED JAN 18 2017

NOTE: "FAIR" INDICATES FEW OR NO CLOUDS BELOW 12,000 FEET WITH NO
       SIGNIFICANT WEATHER AND/OR OBSTRUCTIONS TO VISIBILITY.
       CURRENT SKY AND/OR WEATHER CONDITIONS ARE NOT AVAILABLE FOR
       CHILLICOTHE AND FARMINGTON.

MOZ001>031-035>038-043-044-053-054-182200-
...NORTHERN AND WESTERN MISSOURI...

CITY           SKY/WX    TMP DP  RH WIND       PRES   REMARKS
KANSAS CTY INT MOSUNNY   47  36  65 S6        30.02F
KANSAS C DTWN  SUNNY     49  38  65 SE5       30.03F
LEE`S SUMMIT   SUNNY     47  39  74 S8        30.05F
ST JOSEPH      SUNNY     48  40  73 S8        30.01F
CHILLICOTHE      N/A     40  38  93 S7        30.08F
KIRKSVILLE     CLOUDY    39  36  89 S9        30.07F

$$
MOZ066>068-077>081-088>096-101>105-182200-
...SOUTHWEST MISSOURI...

CITY           SKY/WX    TMP DP  RH WIND       PRES   REMARKS
SPRINGFIELD    CLOUDY    50  37  61 SE9       30.03F
JOPLIN         CLOUDY    53  40  61 SE6       30.04F
BRANSON        CLOUDY    41  41 100 SE7       30.08F

$$
MOZ032>034-039>042-045>050-055>058-069>072-182200-
...CENTRAL MISSOURI...

CITY           SKY/WX    TMP DP  RH WIND       PRES   REMARKS
COLUMBIA       SUNNY     49  36  61 VRB5      30.08F
JEFFERSON CITY SUNNY     49  35  58 SE7       30.09F
ROLLA          SUNNY     50  34  54 CALM      30.06F
SEDALIA        MOSUNNY   50  39  66 SE5       30.06F
WHITEMAN AFB   MOSUNNY   49  42  76 VRB6      30.05F
WARRENSBURG    SUNNY     46  37  71 SE5       30.05F
OSAGE BEACH    SUNNY     53  36  52 CALM      30.07F

$$
MOZ051-052-059>065-182200-
...EAST CENTRAL MISSOURI...

CITY           SKY/WX    TMP DP  RH WIND       PRES   REMARKS
ST LOUIS INTL  NOT AVBL
SPIRIT OF STL  CLOUDY    48  34  58 S6        30.11F
ST CHARLES     CLOUDY    47  35  63 CALM      30.11F

$$
MOZ072>076-082>087-097>100-106>115-182200-
...SOUTH CENTRAL AND SOUTHEAST MISSOURI...

CITY           SKY/WX    TMP DP  RH WIND       PRES   REMARKS
CAPE GIRARDEAU PTSUNNY   44  37  76 S5        30.16R
FARMINGTON     PTSUNNY   44  36  73 S5        30.12F
POPLAR BLUFF   CLOUDY    44  40  85 NE3       30.15F
WEST PLAINS    CLOUDY    42  38  85 E3        30.10F

$$



USA.gov is the U.S. government's official web portal to all federal, state and local government web resources and services.